Location: Newark
(51.3318°N, 0.0053°E)
Time: 16:20:51
(UTC+00:00)

DIWATA 2B (PO-101) - Pass Details

Date: 03 July 2022
Orbit: 583 x 599 km, 98.0° (Epoch: 07 August)

Event Time Altitude Azimuth Distance (km) Brightness Sun altitude
Exits shadow 00:19:39 - 118° (ESE) 2,704 ? -15.6°
Reaches altitude 10° 00:21:59 10° 101° (E) 1,944 ? -15.6°
Maximum altitude 00:24:49 18° 59° (ENE) 1,500 ? -15.6°
Drops below altitude 10° 00:27:40 10° 16° (NNE) 1,952 ? -15.5°
Sets 00:30:24 0° 358° (N) 2,859 ? -15.5°
